Weather History for KHYR - October, 2011

Change the Weather History Date:

Monday, October 10, 2011

  Actual Average Record
Temperature  
Mean Temperature 62 °F -  
Max Temperature 75 °F 59 °F 78 °F (2010)
Min Temperature 48 °F 28 °F 19 °F (2000)
Degree Days  
Heating Degree Days 4    
Growing Degree Days 12 (Base 50)    
Moisture  
Dew Point 48 °F    
Average Humidity 58    
Maximum Humidity 97    
Minimum Humidity 35    
Precipitation  
Precipitation 0.00 in - - ()
Sea Level Pressure  
Sea Level Pressure 30.06 in    
Wind  
Wind Speed 4 mph (South)    
Max Wind Speed 14 mph    
Max Gust Speed 21 mph    
Visibility 10 miles    
Events      
Averages and records for this station are not official NWS values.
T = Trace of Precipitation, MM = Missing Value Source: NWS Daily Summary

Daily Weather History Graph

Daily Weather History Graph

Search for Another Location

Airport or City:

Trip Planner

Search our weather history database for the weather conditions in past years. The results will help you decide how hot, cold, wet, or windy it might be!

Date:

Astronomy

Oct. 10, 2011 Rise Set
Actual Time 7:15 AM CDT 6:29 PM CDT
Civil Twilight 6:45 AM CDT 6:59 PM CDT
Nautical Twilight 6:11 AM CDT 7:33 PM CDT
Astronomical Twilight 5:36 AM CDT 8:08 PM CDT
Moon 5:33 PM CDT (10/10) 5:55 AM CDT (10/10)
Length of Visible Light 12h 13m
Length of Day
11h 13m
Waxing Gibbous, 98% of the Moon is Illuminated
Oct 10
Waxing Gibbous
Oct 11
Full
Oct 19
Last Quarter
Oct 26
New
Nov 2
First Quarter

Hourly Weather History & Observations

Time (CDT) Temp. Dew Point Humidity Pressure Visibility Wind Dir Wind Speed Gust Speed Precip Events Conditions
12:53 AM 48.9 °F 46.9 °F 93% 30.20 in 10.0 mi Calm Calm - N/A   Clear
1:53 AM 48.0 °F 46.0 °F 93% 30.19 in 10.0 mi Calm Calm - N/A   Clear
2:53 AM 48.9 °F 48.0 °F 97% 30.18 in 10.0 mi Calm Calm - N/A   Clear
3:53 AM 50.0 °F 48.9 °F 96% 30.17 in 10.0 mi Calm Calm - N/A   Clear
5:53 AM 57.0 °F 50.0 °F 77% 30.16 in 10.0 mi SE 5.8 mph - N/A   Clear
6:53 AM 55.9 °F 48.9 °F 77% 30.16 in 10.0 mi SSE 4.6 mph - N/A   Clear
8:53 AM 60.1 °F 50.0 °F 69% 30.14 in 10.0 mi SE 6.9 mph - N/A   Clear
9:53 AM 64.9 °F 50.0 °F 58% 30.13 in 10.0 mi South 6.9 mph - N/A   Clear
10:53 AM 69.1 °F 50.0 °F 51% 30.11 in 10.0 mi SSE 8.1 mph - N/A   Clear
11:53 AM 72.0 °F 51.1 °F 48% 30.09 in 10.0 mi South 10.4 mph - N/A   Clear
12:53 PM 73.9 °F 48.0 °F 40% 30.07 in 10.0 mi SE 13.8 mph 19.6 mph N/A   Clear
1:53 PM 75.9 °F 46.0 °F 35% 30.04 in 10.0 mi South 10.4 mph 20.7 mph N/A   Clear
3:53 PM 73.9 °F 45.0 °F 35% 29.99 in 10.0 mi South 9.2 mph 17.3 mph N/A   Clear
4:53 PM 73.0 °F 46.0 °F 38% 29.96 in 10.0 mi South 8.1 mph - N/A   Clear
5:53 PM 72.0 °F 46.0 °F 40% 29.94 in 10.0 mi South 5.8 mph - N/A   Clear
6:53 PM 70.0 °F 46.0 °F 42% 29.94 in 10.0 mi South 4.6 mph - N/A   Clear
7:53 PM 68.0 °F 46.9 °F 47% 29.95 in 10.0 mi South 4.6 mph - N/A   Clear
8:53 PM 66.9 °F 46.0 °F 47% 29.94 in 10.0 mi South 5.8 mph - N/A   Overcast
9:53 PM 68.0 °F 46.0 °F 45% 29.93 in 10.0 mi Variable 5.8 mph - N/A   Overcast
10:53 PM 66.9 °F 46.9 °F 49% 29.94 in 10.0 mi Variable 3.5 mph - N/A   Overcast
11:53 PM 66.9 °F 48.0 °F 51% 29.94 in 10.0 mi SSW 3.5 mph - N/A   Overcast